Regional Weather Roundup
Issued by NWS Cleveland, OH

Home | Current Version | Previous Version | Graphics & Text | Print | Product List | Glossary On
Versions: 1 2 3 4 5 6 7 8 9 10 11 12 13 14 15 16 17 18 19 20 21 22 23 24 25 26 27 28 29 30 31 32 33 34 35 36 37 38 39 40 41 42 43 44 45 46 47 48 49 50
000
ASUS41 KCLE 291112
RWRCLE
OHIO REGIONAL WEATHER ROUNDUP
NATIONAL WEATHER SERVICE WILMINGTON, OH
700 AM EDT THU JUN 29 2017

NOTE: "FAIR" INDICATES FEW OR NO CLOUDS BELOW 12,000 FEET WITH NO
SIGNIFICANT WEATHER AND/OR OBSTRUCTIONS TO VISIBILITY.

OHZ001>008-015>018-024>027-034-035-043-044-291200-
   NORTHWEST OHIO

CITY           SKY/WX    TMP DP  RH WIND       PRES   REMARKS
DEFIANCE       FAIR      68  56  65 S14       29.87F
FINDLAY        MOCLDY    71  55  56 S18G30    29.92F
TOLEDO EXPRESS FAIR      69  57  65 S9        29.87F
TOLEDO EXEC    MOCLDY    73  58  59 S15       29.90F
LIMA           FAIR      69  57  65 S14G21    29.94F
$$

OHZ009>014-019>023-028>033-038-089-291200-
   NORTHEAST OHIO

CITY           SKY/WX    TMP DP  RH WIND       PRES   REMARKS
CLE-HOPKINS    MOCLDY    70  54  56 S14       29.98F
CLE-LAKEFRONT  FAIR      68  53  58 S16       29.95F
CUY CO. ARPT   MOCLDY    70  54  56 S12       29.97
LORAIN-ELYRIA  CLOUDY    64  51  62 S10       29.97F
ASHTABULA      FAIR      65  54  67 SW12G18   30.00F
AKRON-CANTON   FAIR      63  53  70 S6        30.04S
WOOSTER        FAIR      63  54  72 S8        30.02S
MANSFIELD      FAIR      66  54  65 S15       30.00F
YOUNGSTOWN     PTSUNNY   63  52  67 S10       30.04S
$$

OHZ042-051>053-060>062-070>072-077>081-291200-
  SOUTHWEST OHIO

CITY           SKY/WX    TMP DP  RH WIND       PRES   REMARKS
CINC-COVINGTON MOCLDY    66  58  75 S9        30.03S
CINC-LUNKEN    MOCLDY    63  59  87 CALM      30.03S
HAMILTON       FAIR      71  57  61 VRB3      30.02S
DAYTON         MOCLDY    67  55  65 S13       30.01S
WRIGHT-PAT AFB FAIR      66  56  70 S6        30.00S
DAYTON GENERAL FAIR      66  56  70 S10       30.01S
WILMINGTON     FAIR      65  57  75 S12       30.03S
$$

OHZ036-037-039>041-045>050-054>059-063>069-073>076-082>088-291200-
  CENTRAL AND SOUTHEAST OHIO

CITY           SKY/WX    TMP DP  RH WIND       PRES   REMARKS
COLUMBUS       MOCLDY    65  57  75 S5        30.02S
OSU AIRPORT    FAIR      66  57  72 S13       30.02R
BOLTON FIELD   NOT AVBL
RICKENBACK AFB MOCLDY    64  57  78 S9        30.03R
NEWARK         FAIR      60  56  86 CALM      30.04R
MARION         FAIR      65  55  70 S10       29.99F
LANCASTER      FAIR      64  57  78 S7        30.05R
ZANESVILLE     FAIR      62  55  77 S9        30.06S
NEW PHILLY     MOCLDY    59  55  87 SE7       30.07R
$$



USA.gov is the U.S. government's official web portal to all federal, state and local government web resources and services.